Home   Weather   Nancy   Past weeks

Flag for France Past Weather in Nancy, Lorraine, France — Yesterday and Last 2 Weeks

Now
46 °F

Overcast.


Feels Like: 40 °F
Forecast: 44 / 51 °F
Wind: 14 mph from Southwest

Location: Nancy / Ochey

Current Time: Feb 22, 2017 at 7:30:13 am

Latest Report: Feb 22, 2017 at 7:00 am


Visibility: N/A

Pressure: 30.01 "Hg

Humidity: 93%

Dew Point: 45 °F

Location of NancyLocation

Past Weather in Nancy — Graph

°F

Nancy Temperature Yesterday

Maximum temperature yesterday: 52 °F (at 10:30 am)
Minimum temperature yesterday: 46 °F (at 12:00 am)
Average temperature yesterday: 49 °F

High & Low Weather Summary for the Past Weeks

 TemperatureHumidityPressure
High61 °F (Feb 15, 2:30 pm)100% (Feb 7, 6:00 am)30.54 "Hg (Feb 7, 6:00 am)
Low27 °F (Feb 19, 7:30 am)45% (Feb 15, 3:30 pm)29.95 "Hg (Feb 7, 2:00 pm)
Average40 °F87%30.21 "Hg
* Reported Feb 7 6:00 am — Feb 22 6:30 am, Nancy, Weather by CustomWeather, © 2017

Note: Actual official high and low records may vary slightly from our data, if they occured in-between our weather recording intervals... More about our weather records

Advertising

Nancy Weather History for the Previous 24 Hours

Scroll right to see more
 ConditionsComfort  
Time TempWeatherWind HumidityBarometerVisibility
6:30 am
Wed, Feb 22
46 °FDrizzle. Low clouds.12 mph100%30.04 "Hg4 mi
6:00 am46 °FLight rain. Mostly cloudy.12 mph100%30.04 "Hg4 mi
5:30 am48 °FMostly cloudy.16 mph94%30.04 "HgN/A
5:00 am48 °FMostly cloudy.15 mph94%30.04 "HgN/A
4:30 am48 °FDrizzle. Fog.15 mph100%30.04 "Hg3 mi
4:00 am48 °FDrizzle. Low clouds.17 mph100%30.04 "Hg4 mi
3:30 am48 °FDrizzle. Low clouds.16 mph100%30.04 "Hg4 mi
3:00 am48 °FDrizzle. Fog.10 mph100%30.07 "Hg3 mi
2:30 am48 °FDrizzle. Fog.14 mph100%30.07 "Hg3 mi
2:00 am48 °FDrizzle. Fog.13 mph100%30.07 "Hg2 mi
1:30 am48 °FDrizzle. Fog.14 mph100%30.07 "Hg3 mi
1:00 am48 °FLow clouds.16 mph100%30.09 "HgN/A
12:30 am50 °FLow clouds.14 mph94%30.09 "HgN/A
12:00 am50 °FMostly cloudy.14 mph94%30.09 "HgN/A
11:30 pm
Tue, Feb 21
50 °FLow clouds.15 mph94%30.09 "HgN/A
11:00 pm50 °FLow clouds.12 mph94%30.09 "HgN/A
10:30 pm48 °FLow clouds.13 mph100%30.09 "HgN/A
10:00 pm48 °FLow clouds.12 mph100%30.09 "Hg4 mi
9:30 pm48 °FLow clouds.10 mph100%30.09 "HgN/A
9:00 pm48 °FLow clouds.8 mph100%30.09 "HgN/A
8:30 pm48 °FLow clouds.10 mph100%30.09 "HgN/A
8:00 pm48 °FLow clouds.10 mph100%30.12 "HgN/A
7:30 pm48 °FLow clouds.9 mph100%30.12 "HgN/A
7:00 pm48 °FLow clouds.9 mph100%30.12 "HgN/A
6:30 pm48 °FLow clouds.9 mph94%30.12 "HgN/A
6:00 pm48 °FLow clouds.12 mph94%30.12 "HgN/A
5:30 pm48 °FMostly cloudy.12 mph100%30.12 "HgN/A
5:00 pm50 °FOvercast.10 mph94%30.09 "HgN/A
4:30 pm50 °FMostly cloudy.13 mph94%30.09 "HgN/A
4:00 pm50 °FDrizzle. Mostly cloudy.14 mph94%30.09 "HgN/A
3:30 pm50 °FLow clouds.13 mph94%30.09 "HgN/A
3:00 pm50 °FDrizzle. Mostly cloudy.10 mph94%30.09 "HgN/A
2:30 pm50 °FDrizzle. Mostly cloudy.15 mph94%30.09 "HgN/A
2:00 pm50 °FLight rain. Overcast.15 mph94%30.09 "HgN/A
1:30 pm50 °FOvercast.18 mph94%30.12 "HgN/A
1:00 pm50 °FMostly cloudy.16 mph94%30.12 "HgN/A
12:30 pm52 °FOvercast.16 mph88%30.12 "HgN/A
12:00 pm52 °FOvercast.15 mph88%30.12 "HgN/A
11:30 am52 °FOvercast.14 mph88%30.12 "HgN/A
11:00 am52 °FOvercast.13 mph94%30.12 "HgN/A
10:30 am52 °FOvercast.13 mph88%30.12 "HgN/A
10:00 am50 °FLow clouds.13 mph94%30.12 "HgN/A
9:30 am50 °FLow clouds.13 mph94%30.12 "HgN/A
9:00 am48 °FLow clouds.12 mph100%30.09 "Hg6 mi
8:30 am48 °FFog.12 mph100%30.09 "Hg3 mi
8:00 am48 °FLow clouds.12 mph100%30.09 "HgN/A
7:30 am48 °FLow clouds.14 mph100%30.09 "HgN/A
7:00 am48 °FDrizzle. Low clouds.12 mph100%30.09 "Hg4 mi
Weather by CustomWeather, © 2017

See weather overviewHow to use our weather pages